Overview Statistics Trail Chart Weather Telemetry Raw packets
 

This is the latest recevied weather packets stored in our database for station/object 9A7DI-13. If no packets are shown the sender has not sent any weather packets the latest 10 day(s).

<< 38 39 40 41 42 43 44 >>
Time Temp. Humidity Pressure Rain* Wind** Luminosity Snow
1788081411 31.11° C 37% 1025.7 hPa - - - -
1788080811 31.67° C 39% 1025.8 hPa - - - -
1788080215 31.11° C 39% 1025.8 hPa - - - -
1788079611 30.56° C 40% 1025.8 hPa - - - -
1788079011 30° C 41% 1025.9 hPa - - - -
1788078411 30° C 42% 1025.9 hPa - - - -
1788077811 29.44° C 42% 1025.9 hPa - - - -
1788077211 29.44° C 45% 1026 hPa - - - -
1788076611 28.33° C 46% 1025.9 hPa - - - -
1788076012 27.78° C 49% 1025.8 hPa - - - -
1788075411 27.22° C 51% 1025.9 hPa - - - -
1788074811 26.11° C 52% 1025.9 hPa - - - -
1788074211 25.56° C 54% 1025.9 hPa - - - -
1788073611 25° C 56% 1025.9 hPa - - - -
1788073011 23.89° C 59% 1025.8 hPa - - - -
1788072411 23.89° C 61% 1025.8 hPa - - - -
1788071811 22.78° C 66% 1025.8 hPa - - - -
1788071211 21.67° C 68% 1025.8 hPa - - - -
1788070611 21.11° C 70% 1025.8 hPa - - - -
1788070011 20° C 72% 1025.8 hPa - - - -
1788069411 20° C 76% 1025.9 hPa - - - -
1788068811 18.89° C 80% 1025.8 hPa - - - -
1788068211 18.33° C 82% 1025.8 hPa - - - -
1788067611 17.78° C 84% 1025.6 hPa - - - -
1788067011 16.67° C 86% 1025.6 hPa - - - -

* Rain since midnight (hover to see other rain measurements)
** Current wind speed in m/s (hover to see current wind gust speed)